Date,TemperatureHighF,TemperatureAvgF,TemperatureLowF,DewpointHighF,DewpointAvgF,DewpointLowF,HumidityHigh,HumidityAvg,HumidityLow,PressureMaxIn,PressureMinIn,WindSpeedMaxMPH,WindSpeedAvgMPH,GustSpeedMaxMPH,PrecipitationSumIn
2013-1-1,50.0,43.1,35.0,29.0,19.5,9.0,76,41,23,0.00,40.00,19,8,31,0.00
2013-1-2,56.0,48.2,43.0,24.0,10.9,7.0,31,22,15,0.00,40.00,20,10,31,0.00
2013-1-3,59.0,50.3,42.0,18.0,8.1,2.0,37,18,11,0.00,40.00,16,8,27,0.00
2013-1-4,59.0,48.8,42.0,15.0,6.9,0.0,30,18,13,0.00,40.00,14,7,23,0.00
2013-1-5,59.0,48.4,40.0,27.0,14.3,6.0,49,27,13,0.00,40.00,7,4,14,0.00
2013-1-6,46.0,41.3,38.0,39.0,31.5,15.0,98,71,33,0.00,40.00,11,4,20,0.00
2013-1-7,52.0,43.6,35.0,39.0,32.8,18.0,98,70,30,0.00,40.00,9,4,16,0.00
2013-1-8,65.0,55.4,45.0,29.0,21.9,12.0,40,27,17,0.00,40.00,9,4,13,0.00
2013-1-9,67.0,56.9,46.0,43.0,31.5,24.0,71,40,23,0.00,40.00,8,4,15,0.00
2013-1-10,47.0,40.4,35.0,43.0,36.2,28.0,99,86,52,0.00,40.00,15,8,27,0.00
2013-1-11,41.0,34.7,28.0,30.0,22.8,17.0,84,63,38,0.00,40.00,10,4,19,0.00
2013-1-12,45.0,35.3,27.0,29.0,21.2,11.0,96,60,26,0.00,40.00,10,4,16,0.00
2013-1-13,46.0,36.9,31.0,25.0,18.3,11.0,72,48,30,0.00,40.00,12,6,20,0.00
2013-1-14,45.0,36.1,29.0,14.0,3.0,-7.0,46,26,13,0.00,40.00,12,7,18,0.00
2013-1-15,51.0,41.8,33.0,20.0,9.1,-4.0,44,26,18,0.00,40.00,16,8,27,0.00
2013-1-16,61.0,52.2,40.0,22.0,18.3,15.0,38,26,21,0.00,40.00,18,9,29,0.00
2013-1-17,66.0,58.9,55.0,19.0,15.8,13.0,22,18,15,0.00,40.00,20,15,36,0.00
2013-1-18,72.0,60.1,53.0,21.0,16.8,14.0,24,18,12,0.00,40.00,16,10,23,0.00
2013-1-19,71.0,60.0,53.0,19.0,13.7,10.0,21,16,11,0.00,40.00,13,9,20,0.00
2013-1-20,71.0,60.4,53.0,19.0,10.0,4.0,18,14,10,0.00,40.00,13,8,21,0.00
2013-1-21,72.0,62.5,54.0,16.0,5.2,-1.0,13,10,7,0.00,40.00,15,9,25,0.00
2013-1-22,77.0,63.1,55.0,24.0,9.9,-3.0,24,13,8,0.00,40.00,12,7,17,0.00
2013-1-23,72.0,64.0,57.0,37.0,30.6,25.0,42,29,23,0.00,40.00,10,5,21,0.00
2013-1-24,62.0,57.1,54.0,53.0,44.8,32.0,85,65,39,0.00,40.00,10,3,15,0.00
2013-1-25,61.0,55.6,52.0,53.0,50.3,46.0,98,84,60,0.00,40.00,10,5,16,0.00
2013-1-26,53.0,51.4,49.0,53.0,51.0,49.0,100,98,88,0.00,40.00,9,3,14,0.00
2013-1-27,49.0,44.7,38.0,49.0,43.5,35.0,100,96,81,0.00,40.00,8,4,15,0.00
2013-1-28,46.0,39.7,35.0,38.0,33.4,25.0,98,80,46,0.00,40.00,12,5,20,0.00
2013-1-29,50.0,41.7,35.0,41.0,36.5,29.0,97,82,59,0.00,40.00,9,4,17,0.00
2013-1-30,62.0,51.1,41.0,41.0,35.8,28.0,80,58,28,0.00,40.00,9,4,16,0.00
2013-1-31,67.0,60.2,50.0,33.0,28.7,24.0,45,31,24,0.00,40.00,13,7,21,0.00
2013-2-1,69.0,59.7,53.0,39.0,28.1,20.0,47,30,16,0.00,40.00,8,4,15,0.00
2013-2-2,72.0,62.2,55.0,39.0,28.4,18.0,48,29,17,0.00,40.00,7,4,14,0.00
2013-2-3,64.0,57.1,50.0,43.0,40.1,34.0,74,54,36,0.00,40.00,10,4,17,0.00
2013-2-4,65.0,55.5,47.0,49.0,40.3,34.0,88,58,35,0.00,40.00,9,4,16,0.00
2013-2-5,63.0,51.5,42.0,47.0,40.0,29.0,99,68,37,0.00,40.00,8,3,13,0.00
2013-2-6,56.0,45.1,38.0,44.0,40.7,35.0,99,86,57,0.00,40.00,8,3,15,0.00
2013-2-7,62.0,48.8,41.0,46.0,38.5,28.0,99,71,29,0.00,40.00,8,4,14,0.00
2013-2-8,41.0,37.6,33.0,39.0,36.0,32.0,99,94,81,0.00,40.00,15,8,26,0.00
2013-2-9,44.0,36.7,32.0,36.0,33.2,30.0,99,88,63,0.00,40.00,10,3,15,0.00
2013-2-10,42.0,37.8,33.0,37.0,33.3,29.0,96,84,62,0.00,40.00,8,3,13,0.00
2013-2-11,48.0,38.8,32.0,36.0,30.4,11.0,95,74,31,0.00,40.00,10,3,17,0.00
2013-2-12,53.0,43.4,33.0,27.0,15.6,9.0,56,33,20,0.00,40.00,8,5,15,0.00
2013-2-13,59.0,50.0,42.0,36.0,21.4,10.0,66,34,23,0.00,40.00,9,5,16,0.00
2013-2-14,67.0,56.9,47.0,32.0,24.6,22.0,42,29,20,0.00,40.00,11,5,19,0.00
2013-2-15,68.0,60.6,54.0,23.0,14.9,3.0,28,17,9,0.00,40.00,21,7,35,0.00
2013-2-16,72.0,61.8,49.0,23.0,11.9,2.0,28,15,7,0.00,40.00,19,7,31,0.00
2013-2-17,61.0,51.7,44.0,44.0,25.1,14.0,92,38,19,0.00,40.00,9,4,17,0.00
2013-2-18,57.0,46.9,39.0,42.0,30.6,18.0,99,57,26,0.00,40.00,8,4,14,0.00
2013-2-19,42.0,39.0,36.0,40.0,36.7,33.0,99,92,76,0.00,40.00,14,6,23,0.00
2013-2-20,43.0,36.5,31.0,37.0,31.6,27.0,99,84,57,0.00,40.00,16,8,31,0.00
2013-2-21,44.0,36.9,31.0,38.0,33.0,28.0,97,86,72,0.00,40.00,7,4,14,0.00
2013-2-22,55.0,44.5,34.0,34.0,25.5,18.0,87,50,28,0.00,40.00,11,5,19,0.00
2013-2-23,56.0,46.2,35.0,33.0,28.0,23.0,82,50,28,0.00,40.00,9,4,17,0.00
2013-2-24,53.0,45.5,36.0,27.0,9.6,-1.0,65,27,12,0.00,40.00,19,9,32,0.00
2013-2-25,59.0,49.1,40.0,20.0,10.7,2.0,41,22,16,0.00,40.00,11,6,18,0.00
2013-2-26,64.0,52.6,42.0,20.0,11.6,6.0,27,19,14,0.00,40.00,14,7,22,0.00
2013-2-27,62.0,54.1,48.0,12.0,8.2,4.0,21,16,13,0.00,40.00,16,11,26,0.00
2013-2-28,67.0,57.8,50.0,14.0,7.6,3.0,19,13,11,0.00,40.00,21,8,40,0.00
2013-3-1,73.0,64.7,55.0,19.0,15.6,11.0,20,15,12,10.11,10.11,20,12,39,0.00
2013-3-2,78.0,65.1,53.0,29.0,22.3,17.0,30,20,11,10.38,10.20,12,6,17,0.00
2013-3-3,68.0,57.6,41.0,39.0,25.0,16.0,94,31,17,11.03,10.30,10,4,18,0.00
2013-3-4,59.0,49.6,40.0,47.0,42.4,33.0,97,78,56,12.80,40.00,8,4,15,0.00
2013-3-5,62.0,52.1,43.0,48.0,41.1,32.0,99,68,42,0.00,40.00,9,4,16,0.00
2013-3-6,55.0,45.7,40.0,44.0,40.4,38.0,99,83,55,0.00,40.00,10,4,19,0.00
2013-3-7,51.0,45.3,42.0,44.0,38.9,35.0,90,79,54,0.00,40.00,12,4,18,0.00
2013-3-8,44.0,38.9,34.0,42.0,37.4,33.0,98,95,74,0.00,40.00,11,5,20,0.00
2013-3-9,47.0,41.0,38.0,40.0,38.6,35.0,99,91,76,0.00,40.00,12,6,24,0.00
2013-3-10,64.0,51.8,39.0,43.0,32.6,22.0,88,51,22,0.00,40.00,11,5,20,0.00
2013-3-11,68.0,58.1,46.0,36.0,26.4,15.0,48,30,18,0.00,40.00,10,5,17,0.00
2013-3-12,76.0,64.9,53.0,41.0,27.3,16.0,40,25,14,0.00,40.00,12,5,18,0.00
2013-3-13,79.0,70.4,62.0,46.0,31.4,23.0,44,24,13,0.00,40.00,14,7,23,0.00
2013-3-14,83.0,71.3,62.0,51.0,34.3,25.0,48,27,16,0.00,40.00,15,6,21,0.00
2013-3-15,79.0,68.1,57.0,48.0,36.5,29.0,67,33,20,0.00,40.00,8,4,15,0.00
2013-3-16,70.0,60.1,52.0,48.0,32.2,17.0,80,39,16,0.00,40.00,10,4,17,0.00
2013-3-17,67.0,55.8,47.0,49.0,39.6,30.0,95,56,31,0.00,40.00,9,4,14,0.00
2013-3-18,62.0,53.0,46.0,49.0,41.3,33.0,98,66,36,0.00,40.00,9,4,15,0.00
2013-3-19,67.0,55.2,40.0,49.0,40.4,31.0,98,60,34,0.00,40.00,11,4,17,0.00
2013-3-20,68.0,58.5,48.0,47.0,40.7,34.0,79,53,35,0.00,40.00,11,4,19,0.00
2013-3-21,62.0,53.0,45.0,49.0,41.5,35.0,98,66,45,0.00,40.00,8,4,14,0.00
2013-3-22,64.0,49.8,40.0,49.0,44.4,38.0,98,83,52,0.00,40.00,9,4,16,0.00
2013-3-23,67.0,54.9,43.0,49.0,40.6,26.0,85,60,34,0.00,40.00,10,4,16,0.00
2013-3-24,69.0,58.6,49.0,48.0,40.2,34.0,71,52,30,0.00,40.00,9,5,17,0.00
2013-3-25,74.0,62.0,52.0,47.0,38.6,30.0,70,43,24,0.00,40.00,10,4,17,0.00
2013-3-26,68.0,58.2,50.0,45.0,35.6,26.0,74,44,21,0.00,40.00,9,4,18,0.00
2013-3-27,65.0,55.3,48.0,43.0,33.5,22.0,76,45,29,0.00,40.00,9,4,16,0.00
2013-3-28,69.0,58.1,48.0,47.0,40.8,35.0,75,54,37,0.00,40.00,10,5,19,0.00
2013-3-29,70.0,59.7,51.0,52.0,44.5,34.0,98,60,30,0.00,40.00,8,4,14,0.00
2013-3-30,68.0,58.3,48.0,51.0,45.7,-99.9,97,67,45,0.00,40.00,10,4,19,0.00
2013-3-31,62.0,53.2,46.0,49.0,44.5,34.0,97,74,45,0.00,40.00,10,5,20,0.00
2013-4-1,59.0,49.4,43.0,47.0,44.0,40.0,98,84,54,0.00,40.00,12,6,24,0.00
2013-4-2,62.0,50.9,46.0,48.0,46.6,45.0,99,87,59,0.00,40.00,9,5,17,0.00
2013-4-3,75.0,62.9,49.0,52.0,42.0,31.0,92,49,23,0.00,40.00,10,4,21,0.00
2013-4-4,70.0,61.1,51.0,49.0,39.3,31.0,86,46,29,0.00,40.00,10,5,20,0.00
2013-4-5,63.0,53.1,44.0,51.0,47.9,43.0,98,83,61,0.00,40.00,10,4,18,0.00
2013-4-6,64.0,52.7,46.0,50.0,47.2,44.0,99,84,56,0.00,40.00,9,4,19,0.00
2013-4-7,64.0,53.9,46.0,51.0,47.7,44.0,98,81,57,0.00,40.00,8,4,15,0.00
2013-4-8,49.0,44.9,38.0,48.0,42.5,36.0,99,91,69,0.00,40.00,14,7,23,0.00
2013-4-9,59.0,48.2,38.0,42.0,35.7,28.0,99,67,34,0.00,40.00,11,5,22,0.00
2013-4-10,68.0,57.9,46.0,34.0,23.2,18.0,52,27,15,0.00,40.00,13,6,22,0.00
2013-4-11,71.0,60.0,49.0,49.0,30.3,13.0,87,38,15,0.00,40.00,10,4,23,0.00
2013-4-12,71.0,55.8,40.0,50.0,42.8,33.0,96,64,35,0.00,40.00,8,4,17,0.00
2013-4-13,68.0,58.1,46.0,51.0,43.7,31.0,97,61,35,0.00,40.00,8,4,16,0.00
2013-4-14,57.0,48.5,43.0,47.0,45.2,42.0,99,89,65,0.00,40.00,9,4,17,0.00
2013-4-15,49.0,46.3,43.0,48.0,45.3,39.0,99,96,82,0.00,40.00,11,5,17,0.00
2013-4-16,51.0,43.0,38.0,42.0,36.5,33.0,97,79,54,0.00,40.00,11,6,20,0.00
2013-4-17,62.0,49.5,38.0,40.0,28.9,9.0,97,52,21,0.00,40.00,12,5,22,0.00
2013-4-18,68.0,56.8,46.0,19.0,12.4,5.0,24,17,11,0.00,40.00,18,8,32,0.00
2013-4-19,77.0,63.1,51.0,22.0,12.5,6.0,26,14,8,0.00,40.00,10,6,18,0.00
2013-4-20,81.0,66.9,55.0,37.0,23.2,9.0,40,20,12,0.00,40.00,10,4,17,0.00
2013-4-21,78.0,66.9,57.0,43.0,34.4,25.0,54,31,16,0.00,40.00,9,5,17,0.00
2013-4-22,72.0,61.1,50.0,48.0,36.8,22.0,86,44,16,0.00,40.00,10,4,17,0.00
2013-4-23,73.0,57.9,48.0,49.0,40.5,26.0,89,54,29,0.00,40.00,8,4,16,0.00
2013-4-24,60.0,50.9,47.0,49.0,47.4,43.0,99,88,66,0.00,40.00,10,4,17,0.00
2013-4-25,64.0,51.5,45.0,47.0,45.1,42.0,99,80,49,0.00,40.00,9,4,17,0.00
2013-4-26,72.0,58.7,47.0,48.0,45.7,37.0,88,64,41,0.00,40.00,11,4,21,0.00
2013-4-27,77.0,68.0,58.0,52.0,37.9,18.0,58,35,17,0.00,40.00,10,4,19,0.00
2013-4-28,81.0,71.1,63.0,52.0,40.3,29.0,60,34,20,0.00,40.00,10,4,18,0.00
2013-4-29,78.0,68.7,56.0,50.0,36.3,27.0,70,32,21,0.00,40.00,9,4,16,0.00
2013-4-30,69.0,59.5,50.0,51.0,44.6,16.0,98,62,20,0.00,40.00,8,5,16,0.00
2013-5-1,75.0,58.9,47.0,53.0,49.1,45.0,97,73,40,0.00,40.00,11,4,16,0.00
2013-5-2,82.0,71.3,55.0,51.0,8.0,-1.0,85,13,5,0.00,40.00,22,11,38,0.00
2013-5-3,86.0,72.8,65.0,33.0,14.1,-1.0,27,11,6,0.00,40.00,11,7,20,0.00
2013-5-4,77.0,63.2,48.0,50.0,30.2,11.0,98,37,11,0.00,40.00,10,4,19,0.00
2013-5-5,62.0,50.6,44.0,49.0,44.1,33.0,98,80,50,0.00,40.00,14,4,21,0.00
2013-5-6,54.0,50.3,48.0,51.0,48.8,47.0,99,95,83,0.00,40.00,13,5,23,0.00
2013-5-7,54.0,50.1,47.0,48.0,45.5,42.0,98,85,66,0.00,40.00,10,5,18,0.00
2013-5-8,57.0,49.6,43.0,49.0,44.9,42.0,97,84,65,0.00,40.00,9,4,16,0.00
2013-5-9,60.0,52.1,46.0,50.0,47.8,44.0,98,86,67,0.00,40.00,9,5,17,0.00
2013-5-10,73.0,60.1,48.0,55.0,48.4,-99.9,99,72,41,0.00,40.00,11,4,19,0.00
2013-5-11,86.0,73.3,62.0,55.0,40.9,-99.9,56,35,15,0.00,40.00,12,5,26,0.00
2013-5-12,91.0,79.4,66.0,42.0,35.6,28.0,33,22,11,0.00,40.00,12,5,22,0.00
2013-5-13,92.0,81.0,68.0,45.0,37.3,31.0,35,22,13,0.00,40.00,14,6,25,0.00
2013-5-14,85.0,73.0,56.0,51.0,37.7,20.0,80,32,10,0.00,40.00,10,5,17,0.00
2013-5-15,73.0,63.3,55.0,51.0,39.4,22.0,76,44,16,0.00,40.00,9,4,17,0.00
2013-5-16,71.0,55.8,48.0,50.0,28.0,-99.9,94,59,38,0.00,40.00,8,4,16,0.00
2013-5-17,67.0,54.5,46.0,53.0,45.7,-99.9,98,82,54,0.00,40.00,10,4,18,0.00
2013-5-18,68.0,57.4,50.0,50.0,48.5,47.0,97,74,50,0.00,40.00,10,4,18,0.00
2013-5-19,74.0,60.0,46.0,53.0,48.4,44.0,96,68,42,0.00,40.00,10,4,18,0.00
2013-5-20,80.0,68.3,57.0,55.0,49.3,35.0,80,53,29,0.00,40.00,10,4,18,0.00
2013-5-21,80.0,70.5,58.0,54.0,44.0,31.0,82,41,18,0.00,40.00,11,5,18,0.00
2013-5-22,74.0,61.8,48.0,52.0,44.1,31.0,96,55,25,0.00,40.00,10,4,18,0.00
2013-5-23,65.0,54.0,43.0,48.0,44.2,33.0,97,72,38,0.00,40.00,10,4,17,0.00
2013-5-24,68.0,54.8,37.0,47.0,41.7,25.0,98,64,33,0.00,40.00,10,4,16,0.00
2013-5-25,68.0,55.4,43.0,49.0,38.3,11.0,92,55,22,0.00,40.00,9,4,16,0.00
2013-5-26,69.0,56.1,42.0,48.0,43.0,34.0,97,64,39,0.00,40.00,10,4,19,0.00
2013-5-27,70.0,59.0,50.0,51.0,44.2,34.0,85,59,40,0.00,40.00,9,4,18,0.00
2013-5-28,68.0,57.6,48.0,54.0,48.4,42.0,96,72,51,0.00,40.00,11,5,20,0.00
2013-5-29,76.0,64.9,54.0,54.0,49.6,41.0,81,59,40,0.00,40.00,11,4,19,0.00
2013-5-30,77.0,66.1,56.0,53.0,48.3,41.0,83,54,37,0.00,40.00,10,5,16,0.00
2013-5-31,79.0,66.0,57.0,54.0,45.8,37.0,70,50,31,0.00,40.00,8,4,15,0.00
2013-6-1,89.0,76.7,66.0,58.0,51.3,43.0,62,42,23,0.00,40.00,10,4,18,0.00
2013-6-2,81.0,70.9,55.0,56.0,45.8,29.0,87,44,20,0.00,40.00,10,5,15,0.00
2013-6-3,75.0,61.6,48.0,54.0,47.8,33.0,93,63,36,0.00,40.00,9,4,16,0.00
2013-6-4,74.0,58.6,45.0,53.0,49.1,44.0,98,75,43,0.00,40.00,9,4,15,0.00
2013-6-5,78.0,63.5,51.0,54.0,43.8,20.0,87,51,22,0.00,40.00,9,4,17,0.00
2013-6-6,77.0,66.7,58.0,54.0,50.0,41.0,78,56,44,0.00,40.00,10,4,17,0.00
2013-6-7,77.0,66.8,57.0,56.0,50.8,39.0,77,58,35,0.00,40.00,9,4,15,0.00
2013-6-8,78.0,68.7,60.0,55.0,50.5,39.0,74,53,35,0.00,40.00,10,4,17,0.00
2013-6-9,79.0,70.1,63.0,54.0,41.8,20.0,65,38,18,0.00,40.00,8,4,16,0.00
2013-6-10,78.0,69.6,58.0,52.0,46.2,25.0,73,45,21,0.00,40.00,9,5,15,0.00
2013-6-11,87.0,73.8,65.0,56.0,37.5,18.0,69,32,9,0.00,40.00,9,4,17,0.00
2013-6-12,74.0,68.3,57.0,56.0,50.7,41.0,81,54,36,0.00,40.00,8,4,15,0.00
2013-6-13,78.0,69.0,59.0,53.0,45.3,25.0,75,45,23,0.00,40.00,10,5,17,0.00
2013-6-14,78.0,68.1,58.0,52.0,46.6,26.0,72,48,21,0.00,40.00,9,5,17,0.00
2013-6-15,76.0,65.7,54.0,50.0,40.9,7.0,81,44,12,0.00,40.00,8,5,18,0.00
2013-6-16,78.0,68.9,56.0,52.0,38.1,0.0,66,36,9,0.00,40.00,10,5,17,0.00
2013-6-17,80.0,70.5,60.0,51.0,43.5,34.0,60,39,24,0.00,40.00,10,5,20,0.00
2013-6-18,79.0,69.2,59.0,53.0,40.7,24.0,79,39,20,0.00,40.00,9,4,18,0.00
2013-6-19,79.0,65.9,55.0,52.0,41.4,25.0,81,44,17,0.00,40.00,11,5,19,0.00
2013-6-20,79.0,67.0,59.0,51.0,37.5,29.0,68,36,22,0.00,40.00,8,4,16,0.00
2013-6-21,78.0,74.5,71.0,48.0,45.5,42.0,41,36,32,0.00,40.00,9,8,14,0.00
2013-6-22,79.0,71.0,58.0,50.0,45.3,30.0,65,42,21,0.00,40.00,9,5,17,0.00
2013-6-23,73.0,63.9,55.0,52.0,46.4,34.0,84,54,36,0.00,40.00,9,4,16,0.00
2013-6-24,72.0,60.6,46.0,54.0,49.6,43.0,97,69,45,0.00,40.00,9,4,16,0.00
2013-6-25,78.0,65.2,55.0,57.0,52.7,48.0,87,65,45,0.00,40.00,10,4,19,0.00
2013-6-26,85.0,75.6,62.0,58.0,55.4,54.0,77,52,35,0.00,40.00,10,5,18,0.00
2013-6-27,89.0,77.9,68.0,58.0,53.6,50.0,58,44,30,0.00,40.00,10,5,17,0.00
2013-6-28,91.0,82.1,72.0,58.0,52.2,44.0,51,36,28,0.00,40.00,11,6,20,0.00
2013-6-29,95.0,85.0,74.0,61.0,50.1,41.0,49,31,17,0.00,40.00,10,4,17,0.00
2013-6-30,97.0,87.8,79.0,62.0,52.2,38.0,46,31,16,0.00,40.00,9,4,13,0.00
2013-7-1,93.0,82.6,76.0,58.0,52.0,47.0,51,36,22,0.00,40.00,8,4,16,0.00
2013-7-2,89.0,79.9,73.0,59.0,51.3,44.0,54,38,23,0.00,40.00,11,4,17,0.00
2013-7-3,87.0,78.4,70.0,60.0,52.0,41.0,61,41,29,0.00,40.00,9,4,14,0.00
2013-7-4,87.0,78.4,70.0,56.0,44.7,25.0,57,33,14,0.00,40.00,10,5,18,0.00
2013-7-5,85.0,74.7,64.0,58.0,49.5,35.0,77,44,21,0.00,40.00,10,4,18,0.00
2013-7-6,82.0,71.0,65.0,60.0,56.5,50.0,78,61,45,0.00,40.00,10,4,17,0.00
2013-7-7,86.0,77.0,68.0,60.0,56.2,51.0,70,50,38,0.00,40.00,10,5,18,0.00
2013-7-8,91.0,79.3,70.0,55.0,46.0,-99.9,50,33,22,0.00,40.00,10,4,18,0.00
2013-7-9,91.0,83.8,74.0,56.0,45.8,34.0,50,28,14,0.00,40.00,10,5,17,0.00
2013-7-10,83.0,72.5,69.0,60.0,51.3,-99.9,62,50,36,0.00,40.00,7,3,12,0.00
2013-7-11,76.0,70.5,62.0,62.0,58.3,52.0,91,66,53,0.00,40.00,7,4,12,0.00
2013-7-12,82.0,71.9,63.0,61.0,59.1,56.0,89,66,46,0.00,40.00,10,5,20,0.00
2013-7-13,83.0,75.4,65.0,59.0,54.1,47.0,81,49,30,0.00,40.00,10,5,18,0.00
2013-7-14,88.0,77.0,69.0,55.0,50.4,40.0,57,41,24,0.00,40.00,9,4,17,0.00
2013-7-15,86.0,75.7,69.0,55.0,50.2,43.0,56,42,28,0.00,40.00,11,5,23,0.00
2013-7-16,87.0,76.3,65.0,51.0,40.2,27.0,54,30,13,0.00,40.00,9,4,16,0.00
2013-7-17,87.0,75.8,65.0,45.0,27.6,8.0,44,19,8,0.00,40.00,9,4,17,0.00
2013-7-18,86.0,76.1,66.0,55.0,43.8,30.0,52,33,19,0.00,40.00,9,5,16,0.00
2013-7-19,86.0,75.4,66.0,56.0,46.3,36.0,69,38,19,0.00,40.00,8,3,14,0.00
2013-7-20,79.0,70.4,64.0,59.0,48.6,-99.9,77,48,33,0.00,40.00,6,3,9,0.00
2013-7-21,76.0,69.2,64.0,67.0,60.1,55.0,98,74,53,0.00,40.00,7,3,12,0.00
2013-7-22,79.0,70.5,64.0,66.0,62.0,57.0,97,76,55,0.00,40.00,10,4,17,0.00
2013-7-23,80.0,71.6,64.0,61.0,60.1,58.0,86,68,51,0.00,40.00,10,5,19,0.00
2013-7-24,83.0,72.0,64.0,61.0,58.7,57.0,82,64,47,0.00,40.00,11,4,21,0.00
2013-7-25,85.0,76.1,67.0,59.0,55.3,48.0,73,50,34,0.00,40.00,11,5,16,0.00
2013-7-26,83.0,75.1,70.0,60.0,56.4,52.0,62,53,35,0.00,40.00,7,3,12,0.00
2013-7-27,84.0,75.1,68.0,58.0,54.1,50.0,66,49,34,0.00,40.00,9,4,16,0.00
2013-7-28,83.0,72.2,61.0,54.0,46.4,33.0,74,43,18,0.00,40.00,9,4,16,0.00
2013-7-29,80.0,70.2,62.0,54.0,48.7,41.0,69,48,31,0.00,40.00,10,5,16,0.00
2013-7-30,80.0,69.0,60.0,56.0,52.1,47.0,77,56,39,0.00,40.00,10,4,16,0.00
2013-7-31,79.0,68.5,57.0,56.0,53.1,43.0,83,59,42,0.00,40.00,9,4,16,0.00
2013-8-1,78.0,68.7,55.0,53.0,50.0,39.0,74,53,26,0.00,40.00,9,5,17,0.00
2013-8-2,80.0,69.9,59.0,54.0,44.9,18.0,64,43,17,0.00,40.00,9,5,16,0.00
2013-8-3,80.0,69.1,62.0,55.0,44.5,27.0,74,44,20,0.00,40.00,9,4,16,0.00
2013-8-4,82.0,72.1,63.0,54.0,48.1,31.0,62,44,20,0.00,40.00,10,4,18,0.00
2013-8-5,84.0,72.3,62.0,54.0,43.8,21.0,71,39,13,0.00,40.00,10,4,18,0.00
2013-8-6,83.0,71.8,63.0,52.0,42.4,21.0,64,37,14,0.00,40.00,10,4,20,0.00
2013-8-7,80.0,70.8,62.0,50.0,36.3,12.0,59,31,10,0.00,40.00,10,5,20,0.00
2013-8-8,81.0,70.8,61.0,52.0,37.9,19.0,73,33,15,0.00,40.00,11,4,19,0.00
2013-8-9,77.0,66.2,58.0,52.0,42.9,22.0,78,46,14,0.00,40.00,9,4,17,0.00
2013-8-10,75.0,66.5,57.0,51.0,43.1,20.0,70,44,23,0.00,40.00,10,5,17,0.00
2013-8-11,80.0,69.5,59.0,54.0,44.9,32.0,76,44,24,0.00,40.00,10,4,17,0.00
2013-8-17,88.0,73.7,73.0,55.0,37.3,-99.9,50,33,31,0.00,40.00,10,6,17,0.00
2013-8-18,88.0,81.4,73.0,55.0,52.0,46.0,52,37,30,0.00,40.00,8,6,13,0.00
2013-8-19,82.0,45.7,72.0,55.0,-9.9,-99.9,54,36,34,0.00,40.00,9,5,12,0.00
2013-8-20,87.0,73.6,69.0,54.0,36.0,-99.9,54,33,14,0.00,40.00,8,4,15,0.00
2013-8-21,88.0,78.0,72.0,50.0,41.2,33.0,42,28,16,0.00,40.00,10,3,19,0.00
2013-8-22,91.0,84.1,74.0,46.0,41.9,38.0,29,23,18,0.00,40.00,11,6,18,0.00
2013-8-23,89.0,86.0,76.0,54.0,47.0,42.0,46,27,20,0.00,40.00,9,6,15,0.00
2013-10-27,69.0,62.7,51.0,48.0,35.0,25.0,90,45,20,0.00,40.00,7,5,11,0.00
2013-10-28,50.0,41.0,48.0,48.0,22.4,-99.9,97,92,86,0.00,40.00,8,5,13,0.00
2013-10-29,47.0,44.5,43.0,45.0,42.7,41.0,97,94,93,0.00,40.00,5,2,12,0.00
2013-10-30,58.0,48.5,43.0,42.0,40.0,39.0,87,74,55,0.00,40.00,8,4,13,0.00
2013-10-31,71.0,60.1,51.0,37.0,26.1,21.0,46,28,19,0.00,40.00,9,6,14,0.00
2013-11-1,77.0,65.7,59.0,25.0,21.6,16.0,23,19,14,0.00,40.00,13,8,18,0.00
2013-11-2,67.0,33.5,67.0,38.0,-31.0,-99.9,35,18,35,0.00,40.00,6,4,11,0.00
2013-11-13,84.0,77.4,69.0,33.0,27.7,24.0,23,16,12,0.00,40.00,12,8,18,0.00
2013-11-14,81.0,74.4,69.0,34.0,28.2,26.0,23,18,13,0.00,40.00,12,9,16,0.00
2013-11-15,57.0,52.6,48.0,47.0,43.0,32.0,93,73,39,0.00,40.00,11,6,16,0.00
2013-11-16,49.0,37.8,46.0,47.0,15.2,-99.9,93,71,82,0.00,40.00,3,2,7,0.00
2013-11-17,58.0,49.2,43.0,46.0,41.1,39.0,89,75,57,0.00,40.00,8,3,14,0.00
2013-11-18,58.0,48.9,46.0,48.0,44.8,44.0,96,87,62,0.00,40.00,6,2,12,0.00
2013-11-19,53.0,49.6,47.0,48.0,46.9,46.0,98,91,76,0.00,40.00,6,4,12,0.00
2013-12-26,65.0,60.0,56.0,6.0,5.3,5.0,13,11,9,0.00,40.00,13,10,24,0.00
2013-12-27,70.0,65.5,61.0,11.0,5.0,-1.0,10,9,8,0.00,40.00,24,15,34,0.00
2013-12-28,63.0,47.6,57.0,21.0,-8.4,-99.9,21,14,15,0.00,40.00,4,4,8,0.00
2013-12-29,51.0,51.0,51.0,9.0,9.0,9.0,18,18,18,0.00,40.00,8,8,12,0.00
2013-12-30,54.0,52.0,50.0,-7.0,-8.0,-9.0,9,8,7,0.00,40.00,4,4,10,0.00
2013-12-31,63.0,58.0,55.0,24.0,10.7,-7.0,30,17,7,0.00,40.00,5,3,9,0.00
2014-1-1,70.0,60.8,51.0,14.0,11.0,7.0,19,14,11,0.00,40.00,7,6,14,0.00